Wind_Speed
41 38 36 34 32 30 29 28 28 28 27 27 26 26 26 26 27 28 28 27 27 27 26 26 26 26 24 22 20 19 19 19 19 21 24 28 31 33 35 37 40 41 42 43 45 48 52 57 65 76 88 98 105 110 112 112 110 109 108 107 107 107 106 106 106 106 106 106 105 103 102 102 101 100 99 98 97 97 96 95 94 92 91 90 88
43 39 36 34 32 31 29 28 28 27 27 27 27 26 26 26 27 28 29 29 29 28 27 26 26 25 23 20 18 16 15 14 15 16 19 22 26 29 31 33 35 37 39 41 43 46 49 52 57 63 72 82 92 101 108 111 113 113 112 110 109 108 108 108 107 106 106 107 106 105 104 103 102 101 100 99 98 97 97 96 96 94 93 92 90
44 41 37 35 33 31 30 29 28 28 27 27 27 27 27 27 27 27 28 29 30 29 29 27 27 25 23 20 17 16 14 13 13 14 16 19 21 24 26 28 30 32 35 38 40 43 45 48 51 56 62 69 78 88 97 105 111 114 115 113 111 110 109 109 108 107 106 106 106 106 106 105 104 102 101 101 99 98 97 96 96 96 95 93 92
46 43 39 36 34 32 31 30 29 28 28 27 27 27 28 27 27 28 28 28 29 30 30 29 28 26 24 21 17 15 14 13 13 13 15 17 19 20 22 24 27 29 31 34 36 39 40 42 45 49 54 60 66 74 83 92 101 109 113 114 114 112 111 110 110 108 107 106 105 105 106 107 106 104 103 102 101 100 98 97 96 96 95 95 93
49 45 41 38 35 33 31 31 30 29 29 28 28 28 27 27 27 27 28 28 28 29 30 30 29 28 26 23 19 16 14 13 13 13 14 16 18 21 22 23 25 26 28 30 31 33 34 36 39 43 47 53 58 64 70 78 87 96 104 109 112 114 114 113 112 110 109 107 105 104 105 106 106 106 105 105 103 102 101 99 98 96 96 95 94
52 48 43 40 37 34 32 31 30 30 29 29 28 28 28 28 27 27 27 28 28 29 29 30 30 29 27 25 22 19 16 13 13 13 14 15 17 20 21 22 23 24 26 26 27 27 28 30 32 36 40 45 51 56 61 66 72 80 90 98 105 110 113 114 114 112 111 109 107 106 105 105 105 105 106 106 106 105 103 102 100 98 97 96 95
53 50 46 42 39 36 33 31 30 30 29 29 28 28 27 27 28 27 27 27 27 28 28 29 29 29 29 27 24 21 18 16 14 13 13 14 16 18 20 21 22 23 24 24 23 23 23 24 26 29 32 37 42 47 52 56 61 67 75 84 93 101 107 111 113 114 113 111 109 108 106 105 104 104 105 106 106 106 106 104 103 101 99 98 98
55 51 48 44 41 38 35 33 31 30 30 29 28 27 27 27 27 28 27 26 26 27 27 28 28 28 28 28 25 21 19 18 16 14 13 13 14 16 18 20 21 22 23 23 22 21 20 20 21 23 26 29 34 38 43 47 52 57 63 70 79 87 95 102 107 111 113 112 111 109 108 107 106 104 104 104 105 104 104 104 104 103 102 102 101
55 53 50 46 43 40 37 35 32 31 30 30 29 27 27 27 27 27 27 26 25 25 25 26 27 27 28 28 26 22 19 18 17 16 15 14 14 15 16 18 19 20 22 22 21 21 20 19 19 19 20 22 26 30 34 38 42 47 53 59 66 73 82 90 97 103 107 110 111 111 110 110 108 106 105 104 103 102 102 103 102 102 103 104 104
54 54 51 48 45 42 40 37 34 32 31 31 30 28 27 26 27 27 26 25 24 23 23 23 26 27 27 27 27 24 20 19 18 17 16 16 15 15 15 16 18 19 20 21 21 21 21 20 19 17 16 17 19 22 26 30 34 37 41 47 53 60 67 75 83 90 97 103 107 110 111 111 110 108 107 105 104 103 103 103 101 101 102 102 102
53 53 52 50 47 45 42 39 36 33 31 31 31 31 28 26 26 27 26 25 24 22 21 21 23 25 26 26 26 25 22 19 18 18 17 16 16 16 15 15 16 17 18 20 21 21 21 20 19 18 16 15 14 16 19 22 26 29 32 36 40 45 52 59 67 75 83 90 97 102 106 108 108 108 108 107 107 106 105 104 103 102 102 102 101
52 52 52 51 49 46 44 42 39 36 33 31 31 32 31 28 27 26 26 25 24 23 21 20 21 23 25 25 25 25 23 21 19 18 18 17 16 16 16 16 15 16 16 17 19 20 20 20 19 19 17 16 14 13 14 16 19 23 26 29 32 35 39 45 51 58 66 73 81 88 94 99 102 104 105 107 107 107 107 106 105 104 104 104 102
50 50 51 51 49 47 46 44 41 38 34 32 31 31 32 31 29 27 26 26 25 24 23 21 20 21 23 24 24 25 24 22 21 19 18 17 17 16 16 16 16 15 15 16 17 19 20 20 19 19 18 18 16 15 13 13 14 17 20 23 26 29 31 35 39 44 50 57 64 71 77 84 89 94 98 101 104 105 106 107 106 106 106 105 104
49 49 50 50 49 48 46 45 44 40 37 34 31 30 31 32 31 30 28 27 26 26 24 23 21 20 22 23 23 24 24 23 21 20 19 18 17 16 16 15 15 16 15 15 15 16 18 19 19 19 19 18 18 17 16 15 15 14 15 17 19 22 25 28 31 34 39 44 49 54 60 67 72 78 84 90 94 98 101 103 104 105 106 106 106
49 48 48 49 49 48 47 46 45 43 39 36 33 31 30 31 31 31 30 29 27 27 26 25 23 22 21 22 23 23 23 23 22 20 19 19 18 17 16 15 14 14 15 15 15 15 17 18 19 20 19 19 19 19 18 18 17 17 16 16 17 17 18 20 24 27 30 33 37 42 47 51 56 61 67 74 79 85 90 94 97 101 104 105 105
47 47 47 47 48 48 47 46 46 44 42 39 35 32 30 30 30 31 31 30 29 28 27 26 25 24 22 22 23 23 23 23 23 22 20 18 18 17 16 16 15 14 14 14 15 15 16 17 18 19 20 20 20 20 19 19 19 19 19 19 19 19 18 19 21 22 24 26 28 32 36 40 44 48 53 59 64 69 75 81 86 91 96 98 99
46 46 46 46 47 47 47 46 46 45 43 41 38 34 31 30 29 30 30 31 30 29 29 28 27 26 24 23 23 24 24 24 24 23 22 20 18 17 16 16 15 14 13 13 14 15 16 16 17 18 19 20 21 21 21 21 21 21 21 22 22 21 21 22 23 23 24 25 26 27 30 32 35 39 42 46 50 55 61 67 72 77 81 84 86
45 45 45 45 45 46 46 46 45 45 44 43 40 37 33 30 29 29 29 30 30 29 29 29 28 27 26 25 23 24 25 25 25 24 23 21 19 17 16 16 16 15 14 12 12 12 14 16 17 18 19 19 20 21 22 22 23 23 23 23 23 23 23 25 26 26 27 28 28 29 30 31 32 34 35 37 39 43 47 51 56 61 65 68 70
45 44 44 44 44 44 45 45 45 45 45 44 42 39 36 32 30 29 29 29 29 29 28 29 28 28 27 27 25 24 24 25 25 25 24 22 20 18 17 16 16 16 15 13 12 11 11 12 15 17 19 20 20 21 22 23 23 24 25 24 24 24 25 26 27 27 28 29 30 30 31 32 33 33 33 34 36 37 38 40 44 47 50 53 55
44 43 43 43 43 43 44 44 44 45 45 45 44 41 38 35 31 29 28 28 28 28 28 28 28 28 27 27 27 25 25 25 25 26 25 24 22 19 17 16 16 16 16 15 14 12 11 10 11 13 15 18 20 21 22 23 23 24 25 25 26 27 28 28 28 28 29 30 30 31 32 33 34 34 34 34 35 36 36 38 40 41 43 44 46
44 43 42 42 42 42 42 43 43 44 44 45 44 43 41 37 33 30 28 27 27 27 27 26 27 27 27 27 27 26 26 26 26 26 26 25 23 21 18 16 15 15 15 15 15 14 13 12 11 11 11 13 15 17 20 22 23 25 26 26 27 29 30 30 30 30 31 31 31 32 32 33 34 35 35 36 36 36 37 38 40 41 42 43 44
44 43 41 41 41 41 41 42 42 43 43 44 44 44 43 40 36 32 29 27 27 26 26 26 26 26 26 26 26 25 25 25 26 26 25 25 24 22 19 17 15 15 15 15 14 13 13 13 13 13 12 12 13 13 15 17 19 22 24 26 29 30 31 31 32 32 33 33 33 33 33 33 34 35 35 36 36 37 38 39 40 40 41 42 43
44 43 41 41 40 40 40 40 41 42 42 42 43 44 44 42 39 34 30 27 26 26 25 25 25 25 25 25 24 24 24 24 24 24 24 24 23 22 21 18 16 15 15 15 14 13 12 13 13 14 14 14 15 15 15 15 16 17 19 22 26 29 31 31 32 32 33 33 33 33 33 33 33 34 34 35 35 36 38 39 39 39 40 41 43
43 42 41 40 39 39 39 39 40 41 41 42 42 43 44 43 41 37 33 29 26 25 25 24 24 25 25 25 24 23 23 22 22 22 22 22 22 22 21 19 17 16 15 15 14 14 13 13 13 14 14 15 15 16 16 17 17 17 18 19 20 23 26 28 30 32 32 31 31 31 31 32 32 33 34 34 35 37 38 39 39 40 40 41 41
43 42 41 40 38 38 38 38 39 39 40 41 41 42 42 43 42 39 36 31 28 25 25 24 24 24 25 25 24 23 22 22 21 21 20 21 21 21 20 19 18 16 16 16 16 15 15 14 14 14 15 15 16 16 17 17 18 19 19 20 20 19 20 22 25 29 31 31 30 30 30 31 32 33 34 35 36 37 38 38 39 40 39 39 39
42 41 41 39 38 37 37 37 37 38 38 39 40 41 41 42 42 41 38 34 30 26 24 24 24 25 25 25 25 24 23 21 21 20 19 19 19 19 19 19 18 17 16 16 16 16 16 16 16 15 15 15 16 16 17 18 18 19 20 21 21 21 20 19 20 23 26 29 30 31 31 32 33 34 35 36 36 37 37 38 39 39 39 39 39
42 41 40 39 38 36 36 36 36 36 37 37 38 39 40 41 41 41 39 36 32 28 25 24 24 25 26 26 25 25 24 22 21 20 19 18 18 18 18 18 18 17 16 16 16 17 17 17 16 16 16 16 16 17 17 18 18 19 20 22 22 22 22 21 20 19 21 23 27 30 32 34 34 35 36 37 36 36 37 38 39 39 39 39 38
42 41 40 39 38 36 36 36 35 35 36 36 37 37 38 39 40 40 39 38 34 30 26 23 23 24 25 26 26 26 26 23 21 20 19 18 17 17 17 17 17 17 17 16 16 17 17 17 17 16 16 16 16 17 17 18 18 18 19 21 22 23 23 22 21 20 20 21 22 25 29 32 33 34 35 36 36 36 37 38 39 39 39 39 38
42 40 39 38 37 36 35 35 35 34 34 35 35 36 36 37 38 39 39 38 36 32 28 24 22 23 24 24 25 25 26 25 22 20 19 19 17 17 16 17 17 17 17 17 17 17 17 17 17 17 16 16 16 17 17 17 17 17 17 18 20 23 23 22 21 20 20 20 21 22 24 26 29 31 33 34 34 34 35 37 38 39 39 38 36
41 40 39 37 37 36 35 34 34 33 33 33 34 34 35 35 37 38 38 38 37 35 31 26 23 22 23 23 23 24 25 25 23 21 20 19 17 16 16 16 17 18 17 17 17 17 17 17 18 17 17 16 16 16 16 16 16 15 15 15 17 20 22 22 21 20 19 19 20 21 22 23 24 26 28 30 32 33 35 36 37 38 38 37 36
41 39 38 37 36 35 34 34 33 33 33 32 33 33 33 33 34 35 37 37 36 35 33 29 25 21 21 22 22 22 23 23 22 21 20 20 18 16 16 16 17 18 18 18 18 18 18 18 18 18 18 17 15 15 14 14 14 13 13 13 14 17 20 21 22 22 21 21 21 21 21 22 22 23 24 25 27 30 33 35 37 38 38 37 36
40 39 37 36 35 35 34 33 33 32 32 32 32 32 32 32 32 33 34 35 36 35 34 31 27 23 20 20 21 22 22 21 21 20 20 20 19 17 16 17 18 18 19 19 19 19 19 19 19 18 17 16 16 15 14 14 14 13 12 12 13 14 17 20 22 23 24 24 24 23 23 23 23 23 24 24 26 27 30 32 34 36 37 38 38
39 38 37 36 35 34 33 32 32 32 31 31 31 31 31 31 31 31 32 33 34 35 35 33 30 26 21 19 19 20 21 21 20 20 20 20 19 18 17 18 18 19 20 20 20 20 20 19 19 18 17 16 16 15 15 16 16 15 15 14 13 13 14 16 19 22 24 25 25 26 26 25 24 24 25 25 26 28 29 30 31 33 35 37 37
39 38 36 35 34 33 33 32 31 31 30 30 30 30 30 30 30 30 30 31 32 33 34 34 33 29 25 21 19 19 19 20 20 20 20 19 18 18 18 18 19 20 21 21 21 21 21 20 19 18 17 17 16 15 15 16 16 17 17 17 16 16 15 15 16 17 20 22 24 26 27 26 26 26 25 26 26 28 29 30 31 32 33 35 36
38 37 36 35 34 33 32 31 30 30 30 30 29 29 29 29 30 29 29 30 31 32 33 34 34 32 29 25 21 19 18 19 19 19 19 18 18 18 18 18 19 20 21 22 22 22 22 21 20 19 18 18 17 16 15 15 16 16 17 18 18 18 18 17 17 16 17 19 21 23 25 26 27 27 27 26 26 27 28 30 31 32 33 34 35
37 36 35 34 33 33 32 31 30 29 29 29 29 28 28 28 29 29 28 29 30 31 32 33 33 33 32 29 25 22 20 19 19 19 18 18 18 18 18 19 18 19 21 22 23 23 23 23 22 21 20 19 19 18 17 16 16 16 16 17 18 19 19 19 19 18 18 18 20 21 21 23 25 27 27 27 26 25 26 28 30 32 32 33 34
36 36 35 34 33 32 31 30 29 29 29 29 28 28 28 28 28 28 28 27 28 29 30 31 31 32 32 30 27 25 22 20 19 19 19 18 18 18 19 19 18 18 19 22 23 24 24 24 24 23 22 21 21 20 20 19 18 18 17 17 18 18 19 20 20 20 20 20 20 20 19 20 21 23 25 26 25 24 25 26 29 31 31 32 33
36 35 34 34 33 31 30 29 28 28 28 28 28 27 27 27 27 27 27 27 27 27 28 29 30 30 30 30 28 26 24 22 20 20 19 19 19 19 19 19 19 18 19 21 23 24 25 25 25 24 24 23 22 22 22 22 21 20 20 19 19 19 19 20 21 22 22 22 21 21 20 19 19 20 22 24 24 23 23 25 27 30 31 31 31
35 35 34 33 32 31 29 28 28 27 27 27 27 27 26 26 26 26 26 26 26 26 27 28 29 29 30 30 29 27 25 23 21 21 20 20 20 20 20 20 20 19 19 19 22 24 25 25 26 26 25 25 24 24 24 24 23 23 22 22 21 21 20 20 21 23 23 23 23 22 21 21 20 20 21 22 23 22 22 23 26 28 29 30 30
34 34 34 33 32 31 29 28 27 27 27 27 27 26 26 26 26 26 25 25 25 25 26 26 27 28 29 29 29 28 26 24 22 21 21 21 21 21 21 21 20 20 19 19 20 22 24 25 26 26 26 26 25 25 26 25 25 25 25 24 24 23 22 21 22 23 24 24 24 23 23 22 22 21 22 23 23 23 22 22 23 26 28 29 30
34 33 33 33 32 31 29 27 27 26 26 26 26 26 26 25 25 25 25 25 25 25 25 25 26 27 28 28 29 29 28 26 24 21 20 21 22 22 23 23 22 21 20 20 20 21 23 24 25 26 26 26 26 26 27 27 26 26 26 26 26 25 25 23 23 23 24 25 25 24 24 24 23 23 23 23 24 24 23 22 22 24 26 27 29
33 33 33 33 32 31 29 27 26 26 25 25 26 25 25 25 25 25 25 25 25 24 24 24 25 26 27 28 28 29 29 28 27 24 22 20 20 22 23 24 24 23 23 22 21 21 22 23 24 25 26 26 27 28 28 28 28 28 27 27 27 27 26 26 25 24 24 25 26 26 25 25 24 24 24 24 25 25 25 24 23 23 24 26 27
34 33 33 33 32 31 29 27 26 25 25 25 25 25 24 24 24 25 25 25 25 24 24 24 24 25 26 27 27 28 29 29 29 27 25 22 20 20 22 24 25 25 25 24 24 23 23 23 23 24 24 25 26 27 28 29 29 29 29 28 28 27 27 27 27 25 25 25 26 26 26 25 25 24 24 25 25 26 26 26 25 25 25 25 26
34 33 33 33 33 31 29 27 25 25 25 25 25 24 24 24 24 24 25 25 25 25 24 24 24 24 25 26 26 27 28 28 29 29 28 26 24 21 20 21 23 25 26 26 26 26 25 25 25 25 25 25 25 25 26 27 28 29 29 28 28 27 27 27 27 26 25 25 25 26 26 26 25 25 24 24 25 26 26 27 27 27 27 26 26
34 33 33 34 33 31 29 27 25 25 24 24 24 24 24 23 23 24 24 25 25 25 25 24 24 24 24 25 26 26 27 28 28 29 29 28 27 25 22 21 21 23 26 27 28 28 28 27 27 27 26 26 26 25 25 25 25 26 27 27 27 26 27 27 26 26 25 24 24 25 25 25 25 25 24 24 24 25 26 27 27 28 28 27 27
34 34 34 34 33 31 29 27 26 25 24 24 24 24 23 23 23 23 24 24 25 25 25 25 24 24 24 24 25 26 27 27 28 28 29 29 29 28 26 24 22 22 23 26 28 29 30 30 29 29 28 27 27 26 26 25 25 24 25 25 25 25 26 26 26 25 23 23 23 23 23 24 25 25 25 24 23 24 25 26 27 27 28 28 28
35 35 35 34 33 31 30 28 26 25 25 24 24 24 24 23 22 23 23 24 25 25 25 25 25 24 24 25 25 26 27 27 28 28 29 29 30 29 28 27 25 23 22 23 25 28 30 31 31 30 30 29 28 27 27 26 25 25 24 24 24 24 25 26 26 25 23 23 22 22 22 22 23 24 24 24 24 23 24 25 26 27 27 28 28
36 36 35 34 33 31 30 28 27 26 25 24 24 24 24 23 22 22 23 24 24 25 25 25 25 25 25 25 25 26 27 27 28 28 29 29 30 30 30 29 27 26 24 23 23 25 28 30 32 32 32 31 30 29 28 27 26 26 25 25 24 24 25 26 26 26 25 24 23 23 22 22 22 22 23 23 23 23 23 24 25 26 27 27 27
36 36 36 34 33 32 30 28 27 26 25 25 25 25 24 23 23 23 23 24 25 25 26 26 26 25 25 25 25 26 27 27 28 29 29 30 30 31 31 31 30 28 26 24 23 23 25 28 30 32 33 33 32 31 30 29 28 27 27 26 25 25 26 27 27 27 26 26 26 25 25 24 23 23 22 22 23 23 23 23 24 25 26 26 26
37 37 36 35 33 32 30 29 28 27 26 25 25 25 25 24 23 23 23 24 24 25 26 26 27 26 26 26 26 26 27 27 28 29 30 30 31 31 32 32 32 31 30 27 25 24 24 25 27 29 32 33 33 33 32 31 30 29 28 28 27 26 27 27 28 28 28 28 27 27 27 26 26 25 24 24 24 24 24 24 24 25 25 25 25
37 37 36 35 33 32 31 30 28 28 27 26 26 26 25 25 24 23 23 24 25 26 26 27 27 27 27 27 26 26 27 27 28 29 30 30 31 31 32 33 33 33 32 31 28 26 24 24 24 26 29 31 33 34 34 33 33 31 31 30 29 28 28 28 28 29 29 29 29 29 28 28 28 27 27 26 26 26 26 26 26 26 26 26 26
Wind_Direction
346 345 344 343 343 345 347 348 349 350 350 351 352 354 354 354 353 351 349 346 342 336 332 333 334 332 329 325 318 311 299 283 266 252 245 241 239 238 238 240 242 244 246 248 249 250 248 245 242 239 238 238 238 239 240 240 239 239 239 239 240 240 239 238 237 235 235 235 234 234 235 235 235 235 235 236 236 236 237 237 237 237 237 237 238
346 344 342 340 339 339 341 343 344 345 346 347 349 351 353 354 355 354 353 352 350 345 340 338 337 336 336 333 326 319 309 293 273 256 246 241 239 238 239 241 243 246 248 249 251 252 252 250 246 243 240 238 237 237 238 238 239 238 238 238 238 239 239 239 238 236 235 235 235 234 235 235 235 234 235 235 235 236 236 237 237 237 237 237 237
348 344 340 338 336 335 335 335 337 339 341 342 343 345 347 350 351 352 352 352 352 351 348 345 342 339 337 337 332 324 313 299 281 263 251 244 242 242 242 243 245 247 249 251 252 253 253 252 249 246 243 239 237 236 236 236 237 237 237 238 238 238 239 239 239 238 237 236 235 235 235 235 235 234 234 235 235 235 236 236 237 237 237 237 237
351 346 341 337 334 332 331 331 331 332 334 336 337 339 341 344 346 347 349 350 350 350 350 350 347 343 338 336 333 326 316 303 287 272 257 247 242 240 240 241 243 246 249 251 253 254 254 253 250 247 244 241 238 237 236 235 235 235 236 236 237 237 238 238 239 238 238 237 236 236 236 236 235 235 235 235 235 235 235 235 236 237 238 238 238
354 350 344 339 334 331 329 328 328 327 327 329 331 333 335 338 340 342 343 346 347 347 348 349 350 348 342 337 332 327 319 307 295 282 269 257 247 242 240 240 242 245 248 251 254 256 257 255 252 249 245 242 240 238 237 236 235 235 234 234 235 236 236 237 238 238 238 237 236 236 237 237 236 236 235 235 235 235 235 235 236 236 237 238 238
356 353 348 342 336 331 327 326 326 325 324 324 325 327 330 332 334 336 338 340 342 343 344 346 348 349 347 341 333 326 319 310 300 289 279 269 260 253 249 246 245 246 250 254 257 260 261 260 256 252 248 244 241 239 238 237 236 236 234 233 233 233 234 235 236 237 237 237 236 237 237 237 237 237 237 236 236 236 236 236 236 237 237 238 238
357 355 351 346 340 335 329 325 323 322 322 322 322 323 325 327 329 330 333 336 339 340 341 342 344 347 348 345 337 327 320 312 303 294 284 276 270 264 260 256 253 252 253 257 261 264 266 265 262 257 253 247 243 241 239 237 237 236 235 234 233 232 233 233 234 235 236 237 236 237 237 238 238 238 238 238 237 237 236 236 237 237 238 238 238
357 356 353 349 344 339 333 327 322 319 319 320 321 321 321 323 324 326 328 332 336 339 341 341 342 345 348 348 343 334 325 318 309 300 292 283 275 270 267 264 261 258 258 260 263 266 266 266 264 261 256 251 246 243 241 239 237 236 236 235 233 232 232 232 233 234 235 236 236 236 237 238 239 239 239 239 239 238 238 238 238 238 239 239 239
357 356 354 351 348 343 337 331 324 319 316 316 317 319 319 319 320 322 324 327 332 337 342 344 344 344 347 349 349 342 334 328 321 311 300 292 283 276 271 268 266 263 262 262 263 265 266 267 267 265 261 255 250 246 242 240 239 237 237 236 235 234 233 232 232 233 233 234 235 236 236 237 238 239 239 240 240 240 240 240 239 239 239 240 240
356 357 356 353 350 346 341 336 329 322 316 313 313 314 316 316 317 317 319 321 326 331 338 344 347 347 346 348 351 350 343 336 333 326 312 300 292 284 277 272 269 267 264 262 262 263 264 267 269 270 268 263 256 249 245 241 239 238 238 237 236 235 234 233 233 233 233 233 233 234 235 236 237 238 239 240 241 241 241 241 241 241 241 241 241
355 356 356 354 352 349 345 340 335 327 319 313 310 310 310 311 312 313 313 314 318 323 328 336 343 346 347 347 348 351 349 341 336 335 329 317 303 292 284 278 274 271 267 263 261 261 262 265 268 270 270 268 264 256 248 243 239 237 236 236 236 236 235 235 234 234 234 233 233 233 234 235 236 237 238 239 240 241 241 242 242 242 243 243 243
353 355 356 355 353 351 348 344 339 334 324 315 310 307 307 307 307 308 309 308 309 313 318 324 331 337 342 346 346 347 348 345 338 333 333 331 322 306 292 283 278 274 271 266 262 260 259 261 264 267 268 268 267 262 253 245 239 235 233 232 232 233 234 234 235 235 235 234 234 234 234 235 235 236 237 238 239 240 241 242 242 243 243 244 244
351 354 355 356 354 352 351 348 343 339 331 321 312 307 305 304 303 302 303 304 304 305 307 312 319 326 332 338 343 344 343 343 339 333 329 328 328 323 308 291 280 276 273 269 264 260 257 256 257 260 263 265 264 262 257 250 243 237 233 231 229 228 229 230 231 233 234 234 234 235 235 235 235 236 236 237 238 239 240 241 242 243 244 245 245
348 351 354 355 355 353 352 350 347 343 337 328 318 309 305 303 302 299 298 299 299 300 301 303 307 314 321 327 334 339 340 339 337 334 331 328 326 326 322 309 291 279 273 270 266 261 256 254 252 252 255 259 261 259 257 254 252 247 241 235 231 228 226 225 226 228 230 231 232 233 234 235 235 236 236 237 237 238 239 240 241 242 242 243 244
345 348 351 353 354 354 352 352 350 347 343 336 326 315 307 303 302 300 297 296 295 295 297 298 299 303 309 315 321 328 334 336 335 332 330 331 330 328 325 321 308 290 276 269 266 262 257 253 251 248 248 251 254 256 255 252 250 249 247 243 239 237 233 228 226 225 226 227 227 228 230 231 232 233 234 235 236 237 238 239 239 240 241 242 243
343 345 349 351 353 354 353 352 352 350 347 342 334 323 312 304 302 300 299 298 295 293 293 294 296 296 299 304 311 317 323 329 332 331 326 325 328 330 328 326 321 308 289 273 264 260 257 254 252 249 247 245 246 248 249 248 245 243 241 240 239 240 239 235 232 231 230 229 227 225 225 226 227 228 230 232 233 234 235 236 237 239 240 242 243
341 343 346 349 351 353 353 353 352 352 350 347 341 331 319 308 302 301 300 300 299 296 293 291 291 292 294 296 302 307 313 318 324 327 326 321 319 321 323 323 323 321 312 293 274 262 256 253 252 250 248 246 244 243 243 243 242 241 239 237 237 236 235 233 233 233 234 234 232 230 228 227 227 226 227 229 230 231 233 234 236 238 239 240 241
340 341 343 346 349 351 352 353 353 352 352 350 346 339 328 316 306 301 301 301 301 300 297 293 290 288 289 290 294 299 304 309 313 318 322 322 318 313 313 314 314 315 317 315 302 281 264 255 251 249 248 247 246 244 242 241 241 241 240 239 239 238 236 235 235 233 233 234 234 234 234 233 233 232 231 231 231 232 233 234 235 236 237 237 238
340 340 341 343 346 349 351 352 353 353 353 352 350 345 337 326 313 304 300 301 302 301 300 298 294 290 287 286 287 290 294 299 304 309 313 317 317 312 309 309 307 304 304 307 310 306 290 270 257 251 248 246 245 244 243 242 241 241 241 240 240 239 237 237 237 236 236 235 235 235 235 236 236 237 236 235 234 234 234 233 234 234 233 233 234
339 339 339 341 344 347 349 351 352 353 353 353 352 350 344 335 323 310 301 299 300 302 302 300 298 295 292 288 285 285 286 290 295 300 304 309 312 310 306 306 305 302 297 294 294 297 299 293 280 266 257 251 247 245 243 241 239 239 239 239 238 237 237 237 236 236 237 237 237 236 236 236 236 236 236 235 235 235 233 233 233 233 231 230 230
338 339 339 339 341 344 347 349 351 352 353 353 353 352 349 342 333 319 307 300 298 301 303 302 300 298 295 292 288 285 284 285 288 292 296 300 305 306 302 299 300 300 296 293 290 287 285 286 284 280 273 264 258 252 249 245 242 240 239 237 237 237 238 238 238 238 238 238 238 238 237 237 237 237 237 236 236 236 235 234 233 232 231 230 230
337 338 338 338 339 342 344 347 349 351 352 353 353 353 352 348 341 329 315 303 298 298 301 303 303 301 297 295 293 290 287 285 285 286 289 292 297 300 298 292 290 293 293 292 291 288 284 281 279 277 274 271 268 263 258 254 249 246 244 241 240 239 239 239 239 240 239 239 239 238 237 237 238 239 239 239 238 238 237 236 234 233 233 232 233
336 338 338 338 338 340 342 345 347 349 351 352 352 353 353 351 347 339 326 312 300 296 298 301 304 304 302 298 296 294 292 289 285 283 284 286 289 293 294 289 283 283 287 287 287 287 285 283 281 278 275 273 270 267 264 261 257 252 249 247 246 245 243 242 242 241 241 240 240 239 238 238 238 239 240 241 240 240 240 238 237 235 234 233 234
333 336 337 338 337 338 340 343 345 347 349 350 352 353 353 352 350 345 336 324 309 298 294 298 302 304 305 303 300 295 292 291 289 286 284 284 285 286 288 284 277 275 278 280 282 283 283 282 281 279 277 274 273 271 268 265 262 258 255 253 252 251 250 248 246 245 243 242 241 240 239 239 239 239 241 241 241 241 240 239 238 236 235 235 236
331 334 336 337 337 337 338 340 343 345 348 349 350 352 353 353 351 348 342 334 321 306 295 293 296 301 304 305 304 300 295 292 291 290 287 285 283 282 281 278 272 269 271 274 277 278 280 281 281 280 277 273 271 270 269 268 266 263 260 257 255 255 254 252 249 248 246 244 242 241 240 240 240 240 241 241 241 240 240 239 238 237 237 237 237
329 332 335 337 337 337 337 339 340 343 346 348 349 351 353 353 352 350 346 340 331 317 301 291 290 294 299 302 305 304 300 294 291 290 289 286 283 280 276 272 268 264 265 269 272 275 277 279 281 282 280 277 274 271 269 268 267 265 262 259 256 254 254 253 252 250 248 245 243 241 241 240 239 239 239 239 239 239 239 239 239 238 238 238 238
328 330 333 335 336 336 336 337 338 340 343 346 349 350 352 353 353 351 348 343 338 328 313 297 288 288 292 297 303 305 304 298 292 289 288 286 283 279 274 269 265 263 262 264 268 271 274 277 279 281 283 282 280 277 274 271 268 265 262 260 258 254 252 252 252 252 250 248 244 242 241 241 241 240 240 239 238 237 237 237 237 238 238 239 240
327 328 330 334 336 336 336 335 337 339 341 344 347 349 351 352 354 353 350 346 341 335 324 309 294 286 287 293 299 304 306 302 295 290 288 286 283 279 273 268 264 261 261 262 266 269 272 274 277 280 282 283 283 282 280 278 276 272 265 260 256 254 252 251 251 252 251 250 248 245 243 243 243 244 243 241 239 238 238 238 238 238 239 239 240
325 326 329 332 334 335 335 334 335 337 339 341 344 347 349 351 353 353 352 349 345 339 332 321 305 292 288 291 296 301 305 304 299 291 287 286 283 279 273 268 264 261 259 260 264 267 269 272 275 278 281 282 282 283 282 282 282 280 273 263 256 254 252 250 250 251 251 250 249 248 246 244 244 244 244 243 241 239 238 239 239 240 241 241 241
324 325 327 330 332 334 334 333 333 335 337 339 342 344 347 350 352 352 352 350 348 344 338 330 317 301 293 293 296 301 304 303 299 292 287 285 283 278 272 267 264 261 258 258 261 265 268 271 273 277 281 282 280 280 282 284 285 285 280 271 260 255 254 251 248 248 250 251 250 249 248 247 246 245 244 243 242 240 239 239 240 240 241 241 242
323 324 325 328 330 332 333 332 332 333 335 336 338 342 345 349 351 352 351 350 349 346 342 336 328 313 299 295 298 302 303 301 296 291 287 286 283 278 272 268 266 263 258 255 256 260 264 267 270 275 279 280 278 275 276 281 284 285 283 277 267 259 256 254 250 248 249 250 250 250 249 248 247 247 245 244 243 243 242 242 241 241 241 240 240
322 322 324 326 328 330 332 332 331 332 333 334 335 338 342 347 351 353 352 350 349 348 345 341 336 325 309 299 299 303 305 301 294 289 286 285 284 281 275 271 269 265 260 255 253 255 259 262 267 272 277 279 277 273 269 269 272 275 278 278 274 265 258 255 253 252 251 251 251 251 250 249 248 248 247 246 245 245 245 245 245 244 243 241 239
321 321 322 324 325 327 329 331 330 330 331 332 333 335 337 342 347 352 354 352 350 349 347 345 342 336 323 309 303 304 306 303 296 290 286 283 282 281 278 274 271 266 259 253 252 253 256 260 265 271 276 279 278 275 270 266 266 267 269 272 274 271 265 258 255 254 253 251 250 250 250 250 250 249 249 249 249 248 247 247 246 245 244 242 240
320 321 321 322 323 324 327 329 330 330 330 331 332 332 334 336 341 346 351 354 352 350 348 347 346 343 336 324 312 306 306 305 299 293 288 284 282 281 281 279 274 267 259 251 248 249 253 257 262 268 273 276 277 276 274 270 268 267 267 268 269 270 269 265 260 257 254 252 250 249 249 249 249 250 251 251 252 251 250 249 247 245 244 243 241
319 320 320 321 321 321 324 327 329 329 330 330 330 331 331 333 336 340 345 349 351 350 349 348 347 346 343 337 327 316 308 305 301 295 288 284 282 282 283 283 279 270 259 250 244 244 248 253 257 263 268 271 274 275 276 276 275 272 270 268 266 266 267 266 264 260 256 254 254 253 251 249 248 249 250 252 253 254 253 250 247 245 244 243 242
317 319 320 320 319 319 321 325 328 329 329 329 329 329 329 330 332 336 339 343 346 347 348 347 347 346 346 343 336 327 317 310 305 299 291 284 282 282 285 287 284 274 261 250 243 241 243 248 253 257 262 265 268 271 273 276 278 278 277 274 270 266 263 263 263 262 259 257 256 256 255 252 249 249 250 252 254 255 254 250 246 245 244 243 243
316 318 319 319 317 317 318 322 326 328 329 329 328 328 328 328 329 332 335 339 342 344 345 346 346 346 346 345 341 333 323 314 308 302 295 288 285 286 288 290 290 282 266 253 244 241 242 245 250 254 257 261 263 266 268 271 275 278 280 280 277 271 265 260 259 259 259 258 257 256 256 254 253 251 252 253 254 255 254 249 245 243 243 244 244
315 317 318 318 316 315 316 319 323 326 327 328 327 327 326 326 326 328 331 334 338 340 342 343 344 345 346 346 345 340 332 321 312 305 298 291 287 287 289 291 292 288 276 260 249 243 242 244 248 251 255 258 261 263 266 269 271 275 277 280 280 277 271 264 259 257 257 258 258 257 255 254 253 253 254 254 254 255 254 250 244 242 242 243 244
314 316 318 318 315 313 314 316 319 323 325 326 326 326 325 324 324 325 327 330 333 336 339 341 342 343 344 345 346 345 340 331 320 310 302 295 289 287 287 288 289 288 283 271 259 251 246 246 248 251 254 257 260 263 265 267 270 273 275 277 278 278 275 269 263 258 256 256 257 257 256 254 252 251 252 254 255 254 253 251 247 244 243 243 243
313 315 317 317 314 313 312 314 316 319 322 324 325 325 325 324 323 323 324 326 329 332 335 337 339 340 342 343 343 345 344 340 330 317 306 298 292 287 285 284 284 284 282 277 269 262 256 253 251 252 254 257 260 262 264 266 268 270 273 275 276 276 275 272 266 261 257 255 255 255 255 254 252 249 249 252 255 254 252 249 248 246 245 244 244
312 315 316 316 314 312 311 311 313 316 319 322 323 323 324 324 323 322 322 323 325 327 330 334 335 337 338 339 340 342 343 343 340 331 317 304 294 288 284 282 281 281 278 275 272 268 265 262 259 258 258 259 260 261 262 263 265 267 269 271 273 274 274 272 268 262 257 254 252 251 251 251 251 249 248 248 251 253 252 249 247 246 246 246 247
313 314 315 314 313 311 310 309 310 312 315 318 320 322 323 323 323 322 320 320 321 323 326 329 332 333 335 336 337 338 340 341 342 340 332 319 304 293 286 282 280 280 278 276 272 270 268 266 265 264 263 263 262 262 262 262 263 264 266 268 270 271 272 271 270 265 259 254 251 249 248 248 248 248 247 246 247 250 251 250 249 247 246 247 248
314 314 314 313 312 311 309 308 308 309 311 314 317 319 321 322 322 321 320 318 318 319 322 325 327 330 331 333 334 335 336 337 338 339 338 333 322 307 294 285 281 279 278 277 275 272 270 269 268 267 267 267 267 266 266 265 264 264 264 265 266 267 268 269 269 266 261 256 252 249 248 247 247 246 246 246 245 246 247 249 249 249 249 250 251
314 314 313 312 312 311 309 306 305 306 307 310 313 316 319 321 321 321 319 317 316 316 318 320 323 326 328 329 331 332 333 334 335 336 336 336 333 325 312 298 287 280 277 276 276 275 273 272 271 270 269 269 269 269 269 268 266 264 263 262 262 263 264 264 265 264 262 257 253 250 248 247 246 245 245 246 245 244 244 245 245 246 247 249 251
315 314 312 310 311 310 308 306 304 303 304 306 309 312 315 318 320 320 319 317 315 314 314 316 319 322 324 326 327 329 330 330 331 332 333 334 334 332 327 317 303 291 282 277 275 274 274 274 273 272 272 271 271 270 270 270 270 267 264 260 258 258 258 259 259 260 259 257 255 252 250 247 245 244 243 244 246 246 245 244 243 244 245 247 249
315 313 311 309 310 310 308 305 303 302 302 303 305 308 311 314 317 319 319 318 316 313 312 312 315 317 321 323 324 326 327 328 328 329 330 330 331 332 331 328 320 308 296 286 279 275 274 273 273 273 273 273 272 272 271 271 272 271 268 263 259 256 255 254 253 254 254 255 254 254 253 250 246 243 240 240 242 245 246 247 246 245 246 247 248
313 311 310 309 309 309 307 305 302 300 299 300 301 304 307 311 314 316 318 318 316 314 312 311 311 314 317 320 322 323 324 325 326 327 327 327 328 329 329 329 327 321 312 300 290 282 277 274 273 272 272 272 272 272 271 271 271 271 270 266 261 257 254 252 251 249 249 250 251 252 252 252 249 246 242 240 239 240 242 244 246 246 246 247 248
313 311 310 309 308 307 307 305 301 298 297 297 298 300 303 307 310 313 315 316 317 315 313 311 310 311 313 316 318 320 321 322 323 324 325 325 325 325 326 327 327 326 321 314 304 293 285 279 275 273 272 271 270 270 270 269 269 269 268 266 263 258 255 253 251 249 247 246 247 247 248 249 249 249 247 244 242 240 240 241 241 242 242 243 244
313 312 310 308 306 306 306 304 301 297 295 294 294 296 299 303 306 310 312 314 315 316 314 312 310 309 310 312 314 316 318 320 321 322 322 323 323 323 323 324 325 325 324 321 314 305 295 287 280 275 272 270 270 269 268 267 266 266 266 265 263 260 256 253 252 250 248 246 245 244 245 245 245 246 247 247 245 244 243 242 241 241 241 241 242
314 312 310 307 306 305 304 303 301 297 294 292 291 292 295 298 302 305 308 311 313 314 314 313 311 310 309 310 312 314 315 317 318 319 320 320 321 321 321 321 321 322 323 322 319 314 306 297 288 281 275 271 269 267 266 265 264 264 263 262 262 260 258 255 252 250 249 247 245 244 243 243 243 243 244 245 245 245 243 242 242 242 242 242 242
313 312 310 307 304 303 302 302 300 297 293 290 289 289 291 294 298 301 304 307 309 311 313 313 313 311 310 309 310 312 313 315 316 317 318 318 319 319 319 319 319 319 320 320 320 317 313 305 297 289 281 275 270 267 265 264 263 262 261 261 260 259 258 257 254 252 250 247 246 245 243 243 243 243 243 243 243 244 244 243 243 242 242 242 242
Height
5409 5405 5401 5397 5394 5390 5387 5383 5380 5376 5373 5370 5367 5364 5360 5357 5354 5351 5348 5344 5341 5338 5334 5330 5326 5322 5318 5315 5311 5308 5306 5304 5304 5304 5305 5307 5310 5312 5314 5316 5318 5320 5321 5323 5324 5324 5325 5327 5329 5331 5334 5337 5343 5349 5355 5362 5370 5376 5381 5386 5391 5397 5404 5410 5419 5432 5438 5441 5449 5457 5460 5464 5470 5476 5483 5489 5495 5500 5505 5510 5515 5521 5526 5531 5536
5407 5403 5399 5395 5392 5388 5385 5382 5378 5375 5371 5368 5365 5362 5359 5356 5352 5349 5346 5342 5339 5336 5332 5328 5324 5321 5317 5313 5310 5307 5305 5303 5302 5302 5303 5304 5306 5308 5310 5311 5313 5314 5315 5316 5316 5316 5317 5318 5319 5320 5321 5324 5329 5334 5340 5346 5353 5359 5365 5372 5379 5385 5390 5396 5404 5416 5424 5429 5438 5445 5448 5450 5457 5465 5472 5477 5483 5488 5493 5498 5503 5508 5514 5520 5525
5405 5401 5397 5393 5390 5386 5383 5380 5377 5373 5370 5367 5363 5360 5357 5354 5351 5347 5344 5341 5337 5334 5330 5326 5323 5319 5316 5312 5309 5306 5304 5303 5302 5301 5301 5302 5303 5305 5306 5307 5308 5309 5309 5310 5309 5309 5309 5309 5309 5309 5310 5312 5317 5320 5324 5330 5335 5341 5350 5358 5366 5372 5378 5382 5390 5400 5409 5417 5425 5432 5435 5438 5445 5454 5460 5465 5471 5477 5482 5487 5491 5496 5503 5509 5514
5404 5399 5395 5391 5388 5384 5380 5377 5374 5371 5368 5365 5362 5358 5355 5352 5349 5346 5343 5339 5336 5333 5329 5325 5321 5318 5315 5311 5309 5306 5304 5302 5301 5300 5300 5300 5301 5301 5302 5303 5303 5304 5304 5303 5303 5302 5302 5302 5301 5300 5301 5303 5306 5309 5311 5315 5319 5325 5335 5344 5352 5359 5365 5369 5376 5386 5395 5403 5412 5419 5422 5426 5433 5442 5448 5453 5459 5466 5471 5476 5480 5486 5492 5497 5503
5404 5398 5393 5389 5385 5382 5378 5375 5372 5369 5366 5363 5360 5356 5353 5350 5347 5344 5341 5338 5334 5331 5328 5324 5321 5317 5314 5311 5308 5305 5303 5301 5300 5299 5299 5298 5298 5298 5298 5299 5299 5299 5298 5298 5297 5296 5296 5295 5294 5293 5293 5295 5296 5298 5301 5304 5307 5312 5321 5329 5336 5344 5350 5356 5362 5371 5380 5389 5399 5406 5409 5412 5420 5430 5435 5440 5447 5453 5459 5465 5470 5475 5481 5486 5492
5403 5397 5391 5387 5383 5379 5376 5372 5369 5366 5363 5360 5357 5354 5351 5348 5345 5342 5339 5336 5333 5330 5326 5323 5320 5316 5313 5309 5307 5304 5302 5300 5299 5298 5297 5297 5296 5296 5296 5295 5295 5294 5294 5293 5293 5292 5291 5290 5288 5287 5287 5288 5289 5290 5292 5295 5297 5301 5307 5314 5321 5327 5334 5341 5348 5357 5366 5376 5386 5391 5395 5400 5408 5416 5422 5427 5434 5441 5447 5454 5459 5465 5471 5476 5481
5402 5395 5389 5384 5380 5376 5373 5369 5366 5363 5360 5357 5355 5352 5349 5346 5343 5340 5337 5334 5331 5328 5325 5322 5318 5315 5312 5308 5306 5303 5301 5299 5298 5296 5295 5295 5294 5293 5293 5292 5292 5291 5290 5289 5289 5288 5287 5285 5284 5283 5282 5282 5282 5283 5285 5287 5289 5292 5296 5301 5306 5312 5319 5327 5334 5342 5352 5362 5372 5378 5383 5389 5395 5402 5409 5413 5420 5427 5435 5442 5449 5456 5461 5465 5469
5400 5394 5388 5382 5377 5373 5370 5366 5363 5360 5357 5354 5352 5349 5346 5343 5341 5338 5335 5332 5329 5326 5323 5320 5317 5314 5311 5307 5304 5302 5299 5297 5296 5294 5293 5292 5292 5291 5290 5289 5289 5288 5287 5286 5285 5284 5283 5282 5280 5279 5278 5277 5277 5277 5279 5281 5282 5285 5287 5291 5295 5301 5307 5314 5320 5328 5338 5348 5358 5366 5372 5376 5381 5389 5396 5400 5406 5416 5425 5432 5439 5444 5448 5451 5455
5398 5392 5386 5380 5375 5370 5366 5363 5360 5357 5354 5351 5349 5346 5343 5341 5338 5336 5333 5330 5327 5324 5321 5318 5315 5312 5309 5306 5303 5300 5298 5296 5294 5292 5291 5290 5289 5288 5288 5287 5286 5285 5284 5283 5283 5281 5280 5279 5278 5276 5275 5274 5273 5273 5274 5275 5277 5279 5281 5283 5287 5292 5297 5302 5308 5316 5325 5334 5344 5353 5358 5363 5369 5377 5384 5388 5395 5406 5413 5417 5423 5430 5434 5436 5441
5397 5391 5385 5378 5373 5368 5363 5359 5356 5353 5350 5348 5345 5343 5340 5338 5335 5333 5330 5328 5325 5323 5320 5317 5314 5311 5308 5305 5302 5299 5297 5295 5293 5291 5289 5288 5287 5286 5285 5284 5283 5282 5281 5280 5280 5279 5278 5277 5275 5274 5273 5272 5271 5270 5270 5271 5272 5274 5276 5278 5282 5285 5289 5294 5299 5306 5312 5320 5330 5338 5343 5351 5359 5366 5372 5378 5384 5392 5397 5401 5409 5418 5419 5421 5428
5395 5389 5383 5377 5371 5365 5360 5356 5353 5349 5346 5344 5341 5339 5337 5334 5332 5329 5327 5325 5323 5320 5318 5315 5312 5310 5307 5304 5301 5298 5296 5293 5291 5289 5287 5286 5284 5283 5282 5281 5280 5280 5279 5278 5277 5276 5276 5275 5274 5273 5272 5271 5270 5269 5268 5268 5269 5270 5271 5274 5277 5280 5283 5288 5292 5297 5303 5310 5318 5324 5330 5339 5348 5355 5360 5365 5370 5376 5382 5389 5397 5403 5404 5407 5416
5393 5387 5382 5376 5369 5363 5358 5353 5349 5346 5343 5340 5337 5335 5333 5331 5328 5326 5324 5322 5320 5317 5315 5313 5310 5308 5305 5303 5300 5297 5295 5292 5290 5288 5286 5284 5282 5281 5279 5279 5278 5277 5276 5275 5274 5274 5273 5273 5272 5271 5270 5270 5269 5268 5268 5268 5267 5268 5269 5270 5273 5275 5279 5282 5287 5291 5296 5302 5308 5313 5320 5328 5335 5341 5347 5352 5357 5363 5370 5376 5383 5388 5391 5395 5404
5391 5386 5380 5374 5368 5362 5356 5350 5346 5342 5339 5336 5333 5331 5329 5327 5325 5322 5320 5318 5316 5314 5312 5310 5308 5305 5303 5301 5298 5296 5293 5291 5289 5286 5284 5282 5281 5279 5277 5276 5275 5274 5273 5273 5272 5271 5271 5270 5270 5269 5269 5269 5268 5268 5268 5267 5267 5268 5268 5269 5271 5273 5275 5279 5282 5286 5290 5295 5300 5306 5311 5317 5323 5329 5334 5340 5345 5350 5357 5364 5370 5376 5379 5383 5391
5389 5383 5378 5372 5367 5361 5355 5349 5343 5339 5335 5332 5329 5327 5324 5322 5320 5318 5316 5314 5312 5310 5309 5307 5305 5303 5301 5298 5296 5294 5291 5289 5287 5285 5283 5281 5279 5277 5275 5274 5272 5271 5271 5270 5269 5269 5268 5268 5268 5268 5267 5267 5267 5267 5267 5267 5267 5268 5268 5269 5270 5272 5274 5277 5279 5282 5286 5290 5295 5299 5304 5308 5314 5319 5323 5327 5333 5339 5345 5352 5358 5363 5366 5370 5377
5386 5381 5376 5370 5365 5359 5353 5347 5342 5337 5332 5328 5325 5323 5320 5318 5316 5314 5312 5310 5309 5307 5305 5303 5301 5300 5298 5296 5293 5292 5289 5287 5285 5283 5281 5279 5277 5276 5274 5272 5270 5269 5268 5267 5267 5266 5266 5266 5266 5266 5266 5266 5266 5266 5266 5266 5267 5268 5268 5269 5271 5272 5274 5276 5278 5280 5283 5286 5290 5294 5297 5301 5306 5310 5313 5317 5323 5329 5334 5339 5344 5347 5351 5357 5365
5384 5379 5374 5369 5363 5358 5352 5346 5340 5335 5330 5326 5322 5319 5316 5313 5311 5309 5307 5305 5304 5303 5301 5299 5297 5296 5295 5293 5291 5289 5287 5285 5283 5281 5279 5277 5276 5274 5272 5270 5269 5267 5266 5265 5264 5264 5264 5264 5263 5264 5264 5264 5264 5264 5265 5265 5266 5267 5267 5269 5270 5271 5274 5276 5277 5279 5282 5284 5288 5290 5293 5296 5299 5303 5305 5309 5314 5318 5321 5326 5331 5334 5340 5349 5356
5382 5377 5372 5367 5361 5356 5350 5344 5339 5333 5328 5323 5319 5315 5312 5309 5307 5305 5302 5300 5299 5298 5296 5295 5294 5292 5290 5289 5288 5286 5284 5282 5280 5279 5277 5275 5274 5272 5270 5269 5267 5266 5264 5263 5262 5262 5262 5261 5261 5261 5261 5262 5262 5263 5263 5264 5265 5265 5266 5267 5268 5270 5272 5274 5275 5278 5280 5283 5285 5288 5290 5292 5295 5297 5300 5303 5306 5309 5312 5317 5322 5326 5333 5340 5345
5379 5374 5369 5365 5359 5354 5349 5343 5337 5331 5326 5321 5317 5312 5308 5305 5302 5300 5298 5296 5294 5293 5292 5290 5289 5288 5286 5285 5284 5283 5281 5279 5277 5276 5274 5273 5271 5270 5269 5267 5266 5264 5263 5262 5261 5260 5259 5259 5259 5259 5259 5260 5260 5261 5261 5262 5263 5264 5265 5266 5267 5269 5270 5271 5273 5275 5277 5279 5282 5284 5287 5289 5291 5293 5296 5299 5301 5303 5307 5312 5316 5319 5325 5330 5334
5376 5371 5367 5362 5357 5352 5347 5341 5335 5330 5324 5319 5314 5310 5305 5301 5298 5296 5294 5292 5290 5288 5287 5285 5284 5283 5282 5281 5280 5279 5277 5276 5274 5273 5271 5270 5269 5268 5266 5265 5264 5263 5262 5260 5259 5258 5258 5257 5257 5257 5257 5257 5258 5258 5259 5260 5261 5262 5263 5264 5265 5267 5267 5268 5270 5272 5274 5276 5278 5281 5283 5285 5287 5289 5292 5295 5297 5299 5303 5307 5309 5312 5318 5322 5325
5372 5368 5364 5359 5354 5349 5344 5339 5334 5328 5322 5317 5312 5307 5303 5298 5295 5292 5290 5288 5286 5284 5282 5281 5279 5277 5277 5276 5275 5274 5273 5272 5271 5269 5268 5267 5266 5265 5264 5263 5262 5261 5259 5258 5258 5257 5256 5256 5255 5255 5255 5255 5255 5256 5256 5257 5258 5259 5260 5262 5263 5263 5264 5265 5267 5269 5270 5272 5274 5277 5279 5281 5283 5285 5287 5290 5292 5295 5298 5301 5303 5307 5311 5314 5316
5369 5365 5360 5356 5351 5347 5342 5337 5331 5326 5320 5315 5310 5305 5300 5296 5292 5288 5285 5283 5282 5280 5278 5277 5275 5273 5272 5271 5270 5269 5269 5268 5266 5265 5265 5264 5263 5262 5261 5260 5259 5258 5257 5256 5255 5255 5254 5254 5253 5253 5253 5253 5253 5253 5253 5254 5255 5256 5257 5258 5259 5259 5260 5262 5263 5265 5266 5268 5270 5272 5275 5277 5278 5280 5283 5285 5288 5290 5293 5295 5298 5301 5304 5307 5309
5366 5361 5357 5353 5348 5344 5339 5334 5329 5324 5318 5313 5308 5303 5298 5294 5289 5285 5282 5279 5278 5276 5275 5273 5271 5270 5268 5267 5265 5265 5264 5263 5262 5261 5260 5260 5259 5258 5258 5257 5256 5256 5255 5254 5253 5253 5252 5251 5251 5251 5251 5251 5251 5251 5251 5251 5252 5253 5253 5254 5254 5255 5256 5258 5259 5261 5262 5264 5266 5268 5270 5272 5274 5276 5278 5281 5283 5285 5287 5290 5292 5295 5298 5301 5303
5362 5358 5353 5349 5345 5341 5336 5332 5326 5321 5316 5311 5306 5301 5296 5292 5287 5283 5279 5276 5274 5272 5271 5269 5268 5266 5264 5263 5262 5261 5259 5259 5258 5257 5256 5256 5255 5254 5254 5254 5253 5253 5252 5251 5251 5250 5250 5249 5249 5249 5248 5248 5248 5248 5248 5248 5249 5249 5250 5250 5250 5251 5252 5253 5255 5256 5258 5260 5262 5264 5266 5268 5270 5272 5274 5276 5278 5280 5282 5284 5287 5289 5292 5294 5297
5359 5355 5350 5346 5342 5337 5333 5329 5324 5319 5314 5309 5304 5299 5293 5289 5285 5281 5277 5273 5270 5268 5267 5266 5264 5262 5260 5259 5258 5257 5256 5255 5254 5253 5252 5251 5251 5250 5250 5250 5250 5250 5249 5249 5248 5248 5247 5247 5247 5246 5246 5246 5245 5245 5245 5246 5246 5246 5246 5246 5247 5247 5248 5249 5251 5252 5253 5255 5257 5259 5261 5263 5265 5267 5269 5271 5273 5274 5276 5278 5281 5283 5286 5288 5291
5356 5352 5347 5343 5339 5334 5330 5326 5321 5317 5312 5307 5302 5297 5292 5286 5282 5278 5274 5270 5267 5265 5263 5262 5260 5259 5257 5255 5254 5253 5252 5251 5250 5249 5248 5247 5247 5246 5246 5246 5246 5246 5246 5246 5246 5245 5245 5244 5244 5244 5243 5243 5243 5243 5243 5243 5243 5243 5243 5243 5243 5244 5244 5245 5246 5247 5249 5251 5252 5254 5256 5258 5260 5262 5263 5265 5266 5268 5270 5273 5275 5277 5280 5283 5285
5352 5348 5344 5340 5336 5332 5327 5323 5319 5314 5310 5305 5300 5295 5290 5285 5280 5276 5272 5268 5264 5261 5259 5258 5257 5255 5253 5252 5251 5249 5248 5247 5246 5245 5245 5244 5243 5243 5242 5242 5243 5243 5243 5243 5243 5242 5242 5242 5241 5241 5240 5240 5240 5240 5240 5239 5239 5239 5239 5239 5240 5241 5241 5242 5242 5243 5244 5246 5247 5249 5251 5253 5254 5255 5257 5258 5260 5263 5265 5267 5270 5272 5275 5277 5279
5348 5344 5340 5336 5332 5328 5324 5320 5317 5312 5308 5303 5299 5293 5288 5283 5278 5274 5270 5266 5262 5259 5256 5254 5253 5251 5250 5248 5247 5246 5245 5244 5243 5242 5241 5240 5240 5239 5239 5239 5239 5239 5240 5240 5239 5239 5239 5239 5239 5238 5238 5237 5237 5237 5236 5236 5236 5236 5236 5236 5236 5237 5238 5238 5239 5240 5241 5242 5243 5244 5246 5247 5248 5250 5251 5253 5255 5258 5260 5262 5264 5267 5269 5271 5273
5344 5340 5336 5332 5329 5325 5321 5317 5314 5309 5305 5301 5297 5292 5287 5282 5277 5273 5268 5264 5260 5257 5253 5251 5249 5248 5246 5245 5244 5242 5241 5240 5239 5238 5237 5237 5236 5236 5235 5236 5236 5236 5236 5236 5236 5236 5236 5236 5236 5236 5235 5235 5234 5234 5233 5233 5233 5232 5232 5232 5233 5233 5234 5235 5236 5237 5237 5238 5239 5240 5241 5242 5244 5245 5247 5248 5251 5253 5254 5256 5259 5261 5263 5265 5268
5340 5336 5332 5329 5325 5321 5317 5314 5310 5306 5302 5299 5295 5290 5286 5281 5276 5272 5268 5263 5259 5255 5251 5249 5246 5244 5243 5242 5241 5240 5238 5236 5235 5235 5234 5233 5233 5232 5232 5233 5233 5233 5233 5233 5233 5233 5233 5233 5233 5233 5233 5232 5232 5231 5231 5230 5230 5229 5229 5229 5229 5229 5230 5231 5232 5233 5234 5235 5236 5236 5237 5238 5240 5241 5242 5244 5246 5248 5249 5251 5254 5256 5258 5260 5263
5336 5332 5329 5325 5322 5318 5314 5311 5307 5303 5300 5296 5292 5289 5284 5279 5274 5270 5266 5262 5258 5253 5249 5246 5244 5242 5240 5239 5238 5237 5236 5233 5232 5231 5230 5229 5229 5229 5229 5229 5229 5229 5230 5230 5230 5230 5230 5230 5230 5230 5230 5230 5229 5229 5228 5228 5227 5227 5227 5226 5226 5226 5227 5228 5229 5230 5230 5231 5232 5233 5234 5235 5236 5237 5238 5240 5241 5243 5244 5246 5248 5250 5252 5255 5258
5332 5328 5325 5321 5318 5315 5311 5308 5304 5300 5296 5293 5290 5287 5283 5279 5274 5269 5265 5261 5257 5252 5248 5244 5242 5239 5238 5236 5235 5234 5233 5231 5229 5227 5227 5226 5226 5226 5226 5226 5226 5226 5227 5227 5227 5227 5227 5227 5227 5227 5227 5227 5227 5227 5226 5226 5225 5225 5224 5224 5224 5224 5224 5225 5225 5226 5227 5228 5228 5229 5230 5231 5232 5233 5234 5236 5237 5238 5240 5241 5243 5245 5247 5250 5252
5327 5324 5321 5318 5314 5311 5308 5304 5301 5297 5293 5290 5287 5284 5280 5277 5273 5268 5264 5260 5256 5252 5247 5243 5240 5237 5235 5234 5232 5231 5230 5228 5226 5225 5224 5223 5223 5223 5223 5223 5223 5223 5223 5223 5224 5224 5224 5224 5224 5224 5224 5224 5224 5224 5224 5224 5223 5223 5223 5222 5222 5222 5222 5222 5222 5223 5223 5224 5225 5225 5226 5227 5228 5229 5231 5232 5233 5234 5235 5237 5239 5241 5243 5244 5246
5323 5320 5317 5314 5311 5308 5304 5301 5298 5294 5291 5287 5284 5281 5277 5274 5270 5266 5262 5259 5255 5251 5246 5242 5238 5235 5233 5231 5230 5228 5226 5225 5224 5222 5221 5220 5220 5220 5220 5220 5220 5220 5219 5220 5220 5220 5221 5221 5221 5221 5221 5221 5221 5221 5221 5221 5221 5221 5221 5221 5220 5220 5220 5220 5219 5220 5220 5220 5221 5222 5222 5223 5224 5225 5227 5228 5229 5230 5231 5233 5234 5236 5237 5239 5241
5319 5315 5312 5309 5307 5304 5301 5298 5294 5291 5288 5284 5281 5278 5275 5271 5268 5264 5260 5257 5253 5250 5245 5241 5237 5233 5230 5228 5227 5226 5224 5222 5221 5220 5219 5218 5217 5217 5217 5217 5216 5216 5216 5216 5217 5217 5217 5218 5218 5218 5218 5218 5218 5218 5218 5218 5218 5218 5218 5218 5218 5218 5218 5217 5217 5217 5217 5217 5217 5218 5219 5220 5221 5222 5223 5224 5224 5225 5227 5228 5229 5231 5232 5234 5236
5314 5311 5308 5305 5303 5300 5297 5294 5291 5288 5284 5281 5278 5275 5272 5269 5265 5262 5258 5254 5251 5248 5244 5240 5236 5232 5228 5226 5224 5223 5221 5220 5219 5217 5216 5215 5215 5214 5214 5213 5213 5212 5212 5212 5213 5213 5214 5215 5215 5215 5215 5215 5215 5215 5215 5215 5215 5215 5215 5215 5215 5215 5215 5215 5215 5214 5214 5214 5214 5214 5215 5216 5217 5218 5218 5219 5220 5221 5222 5223 5224 5225 5227 5228 5230
5310 5307 5304 5301 5299 5296 5293 5290 5287 5284 5281 5278 5275 5272 5269 5266 5263 5260 5256 5252 5249 5245 5242 5239 5235 5231 5227 5224 5221 5219 5218 5217 5216 5215 5214 5213 5212 5212 5211 5210 5209 5209 5209 5209 5209 5210 5210 5211 5211 5212 5212 5212 5212 5212 5212 5212 5212 5212 5212 5212 5212 5212 5212 5212 5211 5211 5211 5211 5211 5211 5212 5212 5213 5213 5214 5215 5216 5216 5217 5218 5219 5220 5221 5223 5225
5306 5303 5300 5297 5295 5292 5289 5287 5284 5281 5278 5275 5272 5269 5266 5264 5261 5258 5254 5251 5247 5244 5240 5237 5234 5230 5226 5222 5219 5217 5215 5214 5213 5212 5211 5210 5209 5209 5208 5207 5206 5206 5205 5205 5206 5206 5207 5207 5208 5208 5208 5209 5209 5209 5209 5209 5209 5209 5209 5208 5208 5208 5208 5208 5208 5208 5208 5208 5208 5208 5209 5209 5209 5209 5210 5211 5211 5212 5212 5213 5214 5215 5216 5218 5220
5301 5298 5296 5293 5290 5288 5285 5283 5280 5277 5274 5272 5269 5266 5263 5261 5258 5255 5252 5249 5245 5242 5239 5236 5232 5229 5226 5222 5219 5216 5213 5211 5210 5209 5208 5207 5207 5206 5205 5204 5203 5203 5202 5202 5202 5203 5203 5203 5204 5204 5205 5205 5205 5206 5206 5206 5206 5206 5205 5205 5205 5205 5204 5204 5204 5205 5205 5204 5205 5205 5205 5205 5206 5206 5206 5206 5207 5208 5208 5209 5209 5210 5212 5213 5215
5296 5293 5291 5288 5286 5284 5281 5279 5276 5274 5271 5269 5266 5263 5260 5258 5255 5253 5250 5246 5243 5240 5237 5234 5230 5227 5224 5221 5218 5215 5212 5209 5208 5206 5205 5205 5204 5203 5202 5201 5201 5200 5199 5199 5199 5199 5199 5199 5200 5200 5201 5201 5201 5202 5202 5202 5202 5202 5202 5202 5201 5201 5201 5201 5201 5201 5201 5201 5201 5201 5202 5202 5202 5203 5203 5203 5203 5204 5204 5205 5205 5206 5208 5209 5211
5291 5289 5286 5284 5281 5279 5277 5275 5272 5270 5268 5265 5263 5260 5257 5254 5252 5250 5247 5244 5241 5238 5234 5231 5228 5225 5222 5219 5216 5213 5210 5208 5206 5204 5203 5202 5201 5200 5199 5199 5198 5197 5197 5196 5196 5196 5196 5196 5196 5196 5196 5197 5197 5197 5197 5198 5198 5198 5197 5197 5197 5197 5197 5197 5197 5197 5197 5197 5197 5197 5198 5198 5198 5199 5199 5200 5200 5200 5201 5202 5202 5203 5204 5205 5207
5287 5284 5282 5279 5277 5274 5272 5270 5268 5266 5264 5262 5259 5256 5254 5251 5249 5246 5244 5241 5238 5235 5232 5229 5226 5223 5220 5217 5214 5211 5209 5206 5204 5202 5200 5199 5198 5197 5196 5196 5195 5194 5194 5193 5193 5192 5192 5192 5192 5192 5192 5192 5193 5193 5193 5193 5193 5193 5193 5193 5193 5193 5193 5193 5193 5193 5193 5193 5193 5193 5193 5194 5194 5195 5196 5196 5196 5197 5197 5198 5199 5200 5201 5202 5203
5282 5280 5277 5275 5272 5270 5268 5266 5264 5262 5260 5258 5256 5253 5250 5247 5245 5243 5240 5238 5236 5233 5230 5227 5224 5221 5218 5215 5212 5209 5206 5204 5202 5199 5198 5196 5195 5194 5193 5192 5192 5191 5190 5190 5189 5189 5188 5188 5188 5188 5188 5188 5188 5188 5188 5188 5188 5188 5189 5189 5188 5189 5189 5188 5188 5188 5188 5189 5189 5189 5189 5190 5190 5191 5192 5192 5193 5193 5193 5194 5195 5196 5197 5198 5199
5277 5275 5273 5270 5268 5265 5263 5261 5259 5258 5256 5254 5252 5250 5247 5244 5242 5239 5237 5235 5232 5230 5227 5225 5222 5219 5216 5213 5210 5207 5204 5202 5199 5197 5195 5193 5192 5190 5189 5188 5188 5187 5187 5186 5186 5185 5185 5184 5184 5184 5184 5184 5184 5184 5183 5183 5183 5183 5184 5184 5184 5184 5184 5184 5184 5184 5184 5184 5185 5185 5185 5185 5186 5186 5187 5188 5189 5189 5190 5190 5191 5192 5193 5194 5195
5272 5270 5267 5265 5263 5261 5259 5257 5255 5253 5252 5250 5248 5246 5243 5241 5238 5236 5234 5231 5229 5227 5224 5222 5219 5216 5214 5211 5208 5205 5202 5200 5197 5195 5192 5190 5189 5187 5186 5185 5184 5183 5183 5182 5182 5181 5181 5180 5180 5179 5179 5179 5179 5179 5179 5179 5178 5178 5178 5179 5179 5179 5179 5180 5180 5180 5180 5180 5180 5181 5181 5181 5182 5182 5183 5184 5184 5185 5186 5186 5187 5188 5189 5190 5190
5266 5264 5262 5260 5258 5256 5254 5252 5250 5249 5247 5246 5244 5242 5240 5237 5235 5233 5230 5228 5226 5223 5221 5219 5216 5213 5211 5208 5206 5203 5200 5198 5195 5192 5190 5187 5185 5184 5182 5181 5180 5179 5178 5178 5177 5177 5177 5176 5175 5175 5175 5174 5174 5174 5174 5174 5174 5174 5173 5174 5174 5174 5175 5175 5176 5176 5176 5176 5176 5177 5177 5177 5178 5178 5179 5179 5180 5181 5182 5182 5183 5184 5184 5185 5186
5261 5259 5257 5255 5253 5251 5249 5247 5246 5244 5243 5241 5240 5238 5236 5234 5231 5229 5227 5225 5222 5220 5218 5215 5213 5210 5207 5205 5203 5200 5198 5195 5192 5190 5187 5185 5182 5180 5179 5177 5176 5175 5174 5173 5173 5172 5172 5171 5171 5171 5170 5170 5170 5169 5169 5169 5169 5169 5169 5169 5169 5170 5170 5171 5171 5172 5172 5172 5173 5173 5173 5173 5174 5174 5175 5175 5176 5177 5177 5178 5179 5179 5180 5181 5182
5256 5253 5251 5250 5248 5246 5244 5242 5241 5239 5238 5236 5235 5233 5232 5229 5227 5225 5223 5221 5219 5216 5214 5212 5209 5207 5204 5201 5199 5197 5195 5192 5190 5187 5185 5182 5180 5177 5175 5173 5172 5170 5169 5168 5167 5167 5167 5166 5166 5166 5166 5165 5165 5165 5164 5164 5164 5164 5165 5165 5165 5165 5166 5166 5167 5168 5168 5168 5169 5169 5169 5170 5170 5170 5171 5171 5172 5173 5173 5174 5175 5175 5176 5177 5177
5250 5248 5246 5244 5243 5241 5239 5237 5236 5234 5233 5232 5230 5229 5227 5225 5223 5221 5219 5217 5215 5213 5210 5208 5206 5203 5200 5198 5196 5193 5191 5189 5187 5184 5182 5179 5177 5174 5172 5170 5168 5166 5165 5164 5163 5162 5161 5161 5161 5161 5161 5160 5160 5160 5160 5160 5160 5160 5160 5160 5160 5161 5161 5162 5162 5163 5164 5164 5165 5165 5166 5166 5166 5167 5167 5168 5168 5169 5170 5170 5171 5172 5172 5173 5174
5245 5243 5241 5239 5237 5236 5234 5232 5231 5229 5228 5227 5226 5224 5223 5221 5219 5217 5215 5213 5211 5209 5207 5204 5202 5199 5197 5194 5192 5190 5188 5185 5183 5181 5178 5176 5173 5171 5169 5167 5165 5163 5161 5160 5158 5157 5156 5155 5155 5155 5155 5155 5155 5155 5155 5155 5155 5155 5155 5156 5156 5156 5157 5157 5158 5158 5159 5160 5160 5161 5161 5162 5162 5163 5163 5164 5165 5165 5166 5167 5167 5168 5169 5169 5170
5240 5238 5236 5234 5232 5230 5229 5227 5226 5224 5223 5222 5221 5219 5218 5216 5214 5213 5211 5209 5207 5205 5203 5200 5198 5196 5193 5191 5188 5186 5184 5182 5179 5177 5175 5172 5170 5168 5165 5163 5161 5159 5157 5155 5154 5153 5151 5150 5149 5149 5149 5149 5149 5149 5150 5150 5150 5150 5150 5150 5151 5151 5152 5153 5153 5154 5154 5155 5155 5156 5157 5158 5158 5159 5159 5160 5161 5161 5162 5163 5164 5164 5165 5166 5167
5234 5232 5230 5228 5227 5225 5223 5222 5220 5219 5218 5217 5216 5214 5213 5211 5210 5208 5206 5205 5203 5201 5199 5197 5194 5192 5189 5187 5185 5182 5180 5178 5176 5173 5171 5169 5166 5164 5161 5159 5157 5155 5153 5151 5150 5148 5147 5146 5144 5144 5143 5143 5143 5143 5143 5144 5144 5144 5145 5145 5145 5146 5147 5147 5148 5149 5149 5150 5150 5151 5152 5153 5154 5154 5155 5156 5157 5157 5158 5159 5159 5160 5161 5162 5163